アトラス彗星

C/2024 G3 ( ATLAS )

English version
Home page
Updated on September 4, 2024

---------------------------------------------------------------------

・ プロフィール

発見日 2024年4月5日
発見光度 19.2等
発見者 Asteroid Terrestrial-Impact Last Alert System (ATLAS) search program

・ 写真集

・ 軌道要素

Epoch 2024 Oct. 17.0 TT = JDT 2460600.5
T 2025 Jan. 13.42927 TT                                 Rudenko
q   0.0935280            (2000.0)            P               Q
z  -0.0000995      Peri.  108.12473     -0.04069738     +0.81535430
 +/-0.0000861      Node   220.33817     +0.14761081     +0.57657294
e   1.0000093      Incl.  116.84680     +0.98820786     -0.05254523
>From 248 observations 2024 Apr. 5-Aug. 31, mean residual 0".4.

・ 星図

・ 光度変化

        m1 = 9.0 + 5 logΔ + 10.0 log r

---------------------------------------------------------------------

軌道要素はM.P.E.C. 2024-R10に掲載されたものです。
星図はステラナビゲータ Ver.11 (アストロアーツ) で作成したものです。
光度グラフはComet for Windowsで作成したものです。

---------------------------------------------------------------------

Copyright(C) Seiichi Yoshida (comet@aerith.net). All rights reserved.